When you browse on this site, cookies collect data to enhance your experience and personalize the content and advertising you see.
Visit our Privacy Policy to learn more. By continuing to use the site, you agree to this use of cookies and data.
  • In Österreich
  • Länderverzeichnis
  • Für 7 Tage
  • Wassertemperatur
  • Wetterkarte
  • News
  • Widgets
  • user-avatar
    Anmelden

    Stündliche Wetter Liverpool

    Heute, 6 Juni, Samstag

    Zeit Temperatur Niederschläge Wind Luftdruck Luftfeuchtigkeit
    00:00 +17°C° 0 mm 5 m/S 756 mmHg 93%
    01:00 +17°C° 0 mm 5 m/S 756 mmHg 93%
    02:00 +17°C° 0 mm 4 m/S 755 mmHg 88%
    03:00 +15°C° 0 mm 4 m/S 755 mmHg 92%
    04:00 +14°C° 0 mm 4 m/S 755 mmHg 95%
    05:00 +13°C° 0 mm 4 m/S 755 mmHg 98%
    06:00 +14°C° 0.9 mm 4 m/S 755 mmHg 98%
    07:00 +16°C° 0.9 mm 3 m/S 755 mmHg 98%
    08:00 +16°C° 0 mm 3 m/S 755 mmHg 99%
    09:00 +17°C° 1.1 mm 4 m/S 755 mmHg 99%
    10:00 +16°C° 1.1 mm 5 m/S 754 mmHg 98%
    11:00 +16°C° 1.1 mm 6 m/S 754 mmHg 98%
    12:00 +16°C° 1.5 mm 6 m/S 754 mmHg 97%
    13:00 +17°C° 1.5 mm 7 m/S 754 mmHg 97%
    14:00 +17°C° 1.5 mm 7 m/S 753 mmHg 97%
    15:00 +17°C° 0.1 mm 6 m/S 753 mmHg 97%
    16:00 +17°C° 0.1 mm 6 m/S 753 mmHg 97%
    17:00 +16°C° 0.1 mm 5 m/S 752 mmHg 97%
    18:00 +16°C° 0.1 mm 5 m/S 752 mmHg 97%
    19:00 +17°C° 0.1 mm 4 m/S 752 mmHg 98%
    20:00 +15°C° 0.1 mm 4 m/S 752 mmHg 98%
    21:00 +16°C° 0.1 mm 3 m/S 751 mmHg 99%
    22:00 +16°C° 0.1 mm 3 m/S 751 mmHg 99%
    23:00 +16°C° 0.1 mm 2 m/S 750 mmHg 99%

    Morgen, 7 Juni, Sonntag

    Zeit Temperatur Niederschläge Wind Luftdruck Luftfeuchtigkeit
    00:00 +16°C° 0.1 mm 2 m/S 750 mmHg 99%
    01:00 +16°C° 0.1 mm 1 m/S 750 mmHg 99%
    02:00 +16°C° 0.1 mm 1 m/S 750 mmHg 99%
    03:00 +16°C° 0.1 mm 1 m/S 749 mmHg 99%
    04:00 +16°C° 0.1 mm 2 m/S 749 mmHg 99%
    05:00 +16°C° 0.1 mm 2 m/S 749 mmHg 99%
    06:00 +14°C° 0.2 mm 3 m/S 749 mmHg 98%
    07:00 +13°C° 0.2 mm 4 m/S 750 mmHg 97%
    08:00 +12°C° 0.2 mm 5 m/S 750 mmHg 96%
    09:00 +13°C° 0.2 mm 5 m/S 750 mmHg 93%
    10:00 +13°C° 0.2 mm 5 m/S 750 mmHg 90%
    11:00 +13°C° 0.2 mm 6 m/S 750 mmHg 87%
    12:00 +13°C° 0.1 mm 6 m/S 750 mmHg 83%
    13:00 +14°C° 0.1 mm 6 m/S 750 mmHg 80%
    14:00 +14°C° 0.1 mm 6 m/S 750 mmHg 76%
    15:00 +13°C° 0 mm 6 m/S 751 mmHg 77%
    16:00 +11°C° 0 mm 6 m/S 751 mmHg 78%
    17:00 +9°C° 0 mm 6 m/S 751 mmHg 79%
    18:00 +9°C° 0.1 mm 6 m/S 751 mmHg 81%
    19:00 +8°C° 0.1 mm 6 m/S 752 mmHg 84%
    20:00 +7°C° 0.1 mm 6 m/S 752 mmHg 87%
    21:00 +7°C° 0 mm 6 m/S 752 mmHg 85%
    22:00 +7°C° 0 mm 6 m/S 753 mmHg 84%
    23:00 +7°C° 0 mm 5 m/S 753 mmHg 82%

    übermorgen, 8 Juni, Montag

    Zeit Temperatur Niederschläge Wind Luftdruck Luftfeuchtigkeit
    00:00 +7°C° 0 mm 5 m/S 753 mmHg 81%
    01:00 +6°C° 0 mm 5 m/S 753 mmHg 81%
    02:00 +6°C° 0 mm 4 m/S 753 mmHg 81%
    03:00 +6°C° 0 mm 4 m/S 753 mmHg 82%
    04:00 +5°C° 0 mm 4 m/S 753 mmHg 83%
    05:00 +5°C° 0 mm 4 m/S 753 mmHg 84%
    06:00 +7°C° 0 mm 4 m/S 754 mmHg 75%
    07:00 +11°C° 0 mm 4 m/S 754 mmHg 66%
    08:00 +13°C° 0 mm 3 m/S 755 mmHg 57%
    09:00 +14°C° 0 mm 3 m/S 755 mmHg 53%
    10:00 +17°C° 0 mm 3 m/S 754 mmHg 48%
    11:00 +18°C° 0 mm 2 m/S 754 mmHg 44%
    12:00 +19°C° 0 mm 3 m/S 754 mmHg 45%
    13:00 +19°C° 0 mm 4 m/S 754 mmHg 45%
    14:00 +19°C° 0 mm 4 m/S 755 mmHg 45%
    15:00 +18°C° 0 mm 4 m/S 755 mmHg 50%
    16:00 +18°C° 0 mm 3 m/S 755 mmHg 54%
    17:00 +17°C° 0 mm 3 m/S 755 mmHg 58%
    18:00 +16°C° 0 mm 2 m/S 756 mmHg 64%
    19:00 +15°C° 0 mm 2 m/S 756 mmHg 69%
    20:00 +13°C° 0 mm 2 m/S 756 mmHg 75%
    21:00 +12°C° 0 mm 2 m/S 757 mmHg 78%
    22:00 +12°C° 0 mm 1 m/S 757 mmHg 80%
    23:00 +11°C° 0 mm 1 m/S 757 mmHg 83%

    9 Juni, Dienstag

    Zeit Temperatur Niederschläge Wind Luftdruck Luftfeuchtigkeit
    00:00 +9°C° 0 mm 2 m/S 757 mmHg 83%
    01:00 +8°C° 0 mm 2 m/S 757 mmHg 83%
    02:00 +8°C° 0 mm 2 m/S 757 mmHg 83%
    03:00 +8°C° 0 mm 2 m/S 758 mmHg 82%
    04:00 +8°C° 0 mm 2 m/S 758 mmHg 82%
    05:00 +8°C° 0 mm 2 m/S 758 mmHg 81%
    06:00 +10°C° 0 mm 2 m/S 759 mmHg 71%
    07:00 +14°C° 0 mm 2 m/S 759 mmHg 61%
    08:00 +17°C° 0 mm 2 m/S 759 mmHg 51%
    09:00 +19°C° 0 mm 3 m/S 759 mmHg 46%
    10:00 +20°C° 0 mm 3 m/S 759 mmHg 42%
    11:00 +22°C° 0 mm 4 m/S 759 mmHg 37%
    12:00 +22°C° 0 mm 5 m/S 760 mmHg 37%
    13:00 +23°C° 0 mm 5 m/S 760 mmHg 37%
    14:00 +23°C° 0 mm 6 m/S 760 mmHg 37%
    15:00 +23°C° 0 mm 5 m/S 760 mmHg 36%
    16:00 +22°C° 0 mm 5 m/S 760 mmHg 36%
    17:00 +22°C° 0 mm 5 m/S 760 mmHg 35%
    18:00 +20°C° 0 mm 4 m/S 761 mmHg 44%
    19:00 +17°C° 0 mm 3 m/S 761 mmHg 54%
    20:00 +15°C° 0 mm 2 m/S 762 mmHg 63%
    21:00 +15°C° 0 mm 2 m/S 762 mmHg 64%
    22:00 +14°C° 0 mm 2 m/S 762 mmHg 66%
    23:00 +13°C° 0 mm 2 m/S 762 mmHg 67%

    10 Juni, Mittwoch

    Zeit Temperatur Niederschläge Wind Luftdruck Luftfeuchtigkeit
    00:00 +13°C° 0 mm 2 m/S 762 mmHg 65%
    01:00 +13°C° 0 mm 2 m/S 762 mmHg 63%
    02:00 +13°C° 0 mm 2 m/S 762 mmHg 61%
    03:00 +13°C° 0 mm 2 m/S 762 mmHg 64%
    04:00 +12°C° 0 mm 3 m/S 763 mmHg 66%
    05:00 +12°C° 0 mm 3 m/S 763 mmHg 68%
    06:00 +14°C° 0 mm 3 m/S 763 mmHg 66%
    07:00 +15°C° 0 mm 4 m/S 763 mmHg 65%
    08:00 +17°C° 0 mm 4 m/S 764 mmHg 63%
    09:00 +18°C° 0 mm 4 m/S 764 mmHg 61%
    10:00 +19°C° 0 mm 5 m/S 764 mmHg 58%
    11:00 +20°C° 0 mm 5 m/S 764 mmHg 55%
    12:00 +20°C° 0 mm 5 m/S 764 mmHg 57%
    13:00 +21°C° 0 mm 5 m/S 764 mmHg 58%
    14:00 +21°C° 0 mm 6 m/S 764 mmHg 60%
    15:00 +21°C° 0 mm 6 m/S 764 mmHg 62%
    16:00 +20°C° 0 mm 6 m/S 764 mmHg 63%
    17:00 +19°C° 0 mm 6 m/S 764 mmHg 65%
    18:00 +17°C° 0 mm 5 m/S 764 mmHg 70%
    19:00 +15°C° 0 mm 5 m/S 764 mmHg 75%
    20:00 +14°C° 0 mm 5 m/S 765 mmHg 80%
    21:00 +14°C° 0 mm 5 m/S 765 mmHg 81%
    22:00 +13°C° 0 mm 5 m/S 765 mmHg 82%
    23:00 +13°C° 0 mm 5 m/S 765 mmHg 84%

    11 Juni, Donnerstag

    Zeit Temperatur Niederschläge Wind Luftdruck Luftfeuchtigkeit
    00:00 +13°C° 0 mm 5 m/S 765 mmHg 83%
    01:00 +13°C° 0 mm 5 m/S 765 mmHg 83%
    02:00 +13°C° 0 mm 4 m/S 765 mmHg 83%
    03:00 +13°C° 0 mm 4 m/S 765 mmHg 84%
    04:00 +13°C° 0 mm 4 m/S 765 mmHg 85%
    05:00 +12°C° 0 mm 4 m/S 765 mmHg 86%
    06:00 +14°C° 0 mm 5 m/S 765 mmHg 79%
    07:00 +16°C° 0 mm 5 m/S 765 mmHg 72%
    08:00 +19°C° 0 mm 5 m/S 765 mmHg 66%
    09:00 +20°C° 0 mm 5 m/S 765 mmHg 63%
    10:00 +20°C° 0 mm 6 m/S 765 mmHg 59%
    11:00 +21°C° 0 mm 6 m/S 765 mmHg 56%
    12:00 +22°C° 0 mm 6 m/S 765 mmHg 55%
    13:00 +22°C° 0 mm 6 m/S 764 mmHg 54%
    14:00 +23°C° 0 mm 6 m/S 764 mmHg 53%
    15:00 +22°C° 0 mm 6 m/S 764 mmHg 55%
    16:00 +21°C° 0 mm 6 m/S 764 mmHg 58%
    17:00 +20°C° 0 mm 5 m/S 763 mmHg 60%
    18:00 +19°C° 0 mm 5 m/S 763 mmHg 67%
    19:00 +16°C° 0 mm 5 m/S 763 mmHg 73%
    20:00 +14°C° 0 mm 4 m/S 763 mmHg 79%
    21:00 +13°C° 0 mm 4 m/S 763 mmHg 82%
    22:00 +13°C° 0 mm 4 m/S 763 mmHg 84%
    23:00 +12°C° 0 mm 4 m/S 763 mmHg 87%
    Mehr zeigen